COSMOS 1232

导读

COSMOS 1232是苏联(CIS)于1980年12月23日08:00发射的"宇宙"系列卫星,该系列是苏联/俄罗斯大规模军用卫星工程,多数承担军事侦察、空间物理探测等任务。作为冷战时期航天活动产物,它延续了苏联系统性空间探索布局,见证了当时航天技术发展,这类卫星长期为苏联战略安全与空间科学研究提供支持。

基本信息
目录编号:
12111
目录名称:
COSMOS 1232
国际标识:
1980-102E
轨道中心:
EARTH
卫星名称:
COSMOS 1232
卫星全名:
--
卫星状态:
在轨 (已飞行16701 天)
发射日期:
1980-12-23 UTC
国别 :
俄罗斯(独联体) (CIS)
星等 :
--
该卫星已列入 空间交会检测服务 Space Conjunction Data Service (SCDS) ,当前飞行风险评估等级: 无高风险
轨道信息
数据来源 国际轨道数据 AOE轨道数据
星历时间 2026-09-14T07:51:30+0800
8小时前
查看轨道信息
2026-09-13T00:00:00+0800
1天前
查看轨道信息
半长轴 7816.254km 7816.253km
偏心率 0.0033618 0.0033589
轨道倾角 73.991° 73.990°
近地点辐角 317.666° 319.743°
升交点赤经 263.644° 265.431°
平近点角 70.542° 186.757°
近地点 1411.84km 1411.861km
远地点 1464.394km 1464.371km
周期 114.619分钟 114.619分钟
每日圈数 12.563332 12.563333
详细信息
使用方式:
暂无
2D轨道图
3D轨道图
轨道高度分析图
轨道倾角分析图
轨道综合分析图
查看轨道综合分析图
与全量物体交会距离演化趋势 订阅飞行安全评估服务
与全量物体交会风险概率演化趋势 订阅飞行安全评估服务